This is the latest recevied weather packets stored in our database for station/object KG7MRB. If no packets are shown the sender has not sent any weather packets the latest 10 day(s).
| Time | Temp. | Humidity | Pressure | Rain* | Wind** | Luminosity | Snow |
|---|---|---|---|---|---|---|---|
| 1778054048 | 11.11° C | 95% | 1034.3 hPa | 0 mm | - | 0 W/m² | - |
| 1778053745 | 11.11° C | 95% | 1034.3 hPa | 0 mm | - | 0 W/m² | - |
| 1778053442 | 11.11° C | 94% | 1034.3 hPa | 0 mm | - | 0 W/m² | - |
| 1778053139 | 11.67° C | 94% | 1034.5 hPa | 0 mm | - | 0 W/m² | - |
| 1778052837 | 11.67° C | 93% | 1034.2 hPa | 0 mm | - | 0 W/m² | - |
| 1778052533 | 12.22° C | 92% | 1034 hPa | 0 mm | - | 0 W/m² | - |
| 1778052231 | 12.78° C | 91% | 1034 hPa | 0 mm | - | 0 W/m² | - |
| 1778051929 | 13.89° C | 88% | 1034 hPa | 0 mm | - | 0 W/m² | - |
| 1778051627 | 14.44° C | 85% | 1034.1 hPa | 0 mm | - | 0 W/m² | - |
| 1778051323 | 13.89° C | 86% | 1034 hPa | 0 mm | - | 0 W/m² | - |
| 1778051020 | 13.89° C | 87% | 1033.8 hPa | 0 mm | - | 0 W/m² | - |
| 1778050717 | 14.44° C | 86% | 1034 hPa | 0 mm | - | 0 W/m² | - |
| 1778050415 | 14.44° C | 87% | 1033.9 hPa | 0 mm | - | 0 W/m² | - |
| 1778050111 | 14.44° C | 86% | 1033.8 hPa | 0 mm | - | 0 W/m² | - |
| 1778049807 | 14.44° C | 87% | 1033.7 hPa | 0 mm | - | 0 W/m² | - |
| 1778049504 | 14.44° C | 87% | 1033.5 hPa | 0 mm | - | 0 W/m² | - |
| 1778049202 | 14.44° C | 86% | 1033.7 hPa | 0 mm | - | 0 W/m² | - |
| 1778048900 | 14.44° C | 86% | 1033.7 hPa | 0 mm | - | 0 W/m² | - |
| 1778048597 | 14.44° C | 85% | 1033.7 hPa | 0 mm | - | 0 W/m² | - |
| 1778048293 | 14.44° C | 85% | 1033.5 hPa | 0 mm | - | 0 W/m² | - |
| 1778047990 | 14.44° C | 86% | 1033.5 hPa | 0 mm | - | 0 W/m² | - |
| 1778047689 | 14.44° C | 87% | 1033.4 hPa | 0 mm | - | 0 W/m² | - |
| 1778047387 | 12.78° C | 90% | 1033.7 hPa | 0 mm | - | 0 W/m² | - |
| 1778047082 | 11.67° C | 93% | 1033.5 hPa | 0 mm | - | 0 W/m² | - |
| 1778046780 | 11.67° C | 95% | 1033.4 hPa | 0 mm | - | 0 W/m² | - |
* Rain latest hour (hover to see other rain measurements)
** Current wind speed in m/s (hover to see current wind gust speed)